Back to catalog

STARLINK-36138

AliveCommunicationsVLEO
NORAD 67030·PAYLOAD·🇺🇸 United States

Launched Dec 11, 2025 from Cape Canaveral Space Force Station

Loading…

Next Passes (next 24 hours)

TLE

FreshSource: CelesTrak SupGP

Epoch: Sep 14, 2026, 21:12 UTC

1 67030C 25294A   26257.88381944  .00052292  00000+0  18940-2 0  2575
2 67030  43.0039  49.7194 0001733 278.2038  49.6897 15.27551982    14

Track STARLINK-36138 in real time with AllMySat

Download on the App Store